Year,Month,Day,Hour,Minute,Value (Times are PST for temperature in C)
2006,05,05,00,00,10.90
2006,05,05,00,01,10.90
2006,05,05,00,02,10.80
2006,05,05,00,03,10.80
2006,05,05,00,04,10.70
2006,05,05,00,05,10.70
2006,05,05,00,06,10.70
2006,05,05,00,07,10.60
2006,05,05,00,08,10.60
2006,05,05,00,09,10.70
2006,05,05,00,10,10.70
2006,05,05,00,11,10.70
2006,05,05,00,12,10.70
2006,05,05,00,13,10.70
2006,05,05,00,14,10.70
2006,05,05,00,15,10.70
2006,05,05,00,16,10.70
2006,05,05,00,17,10.70
2006,05,05,00,18,10.70
2006,05,05,00,19,10.70
2006,05,05,00,20,10.70
2006,05,05,00,21,10.70
2006,05,05,00,22,10.70
2006,05,05,00,23,10.70
2006,05,05,00,24,10.80
2006,05,05,00,25,10.80
2006,05,05,00,26,10.80
2006,05,05,00,27,10.80
2006,05,05,00,28,10.90
2006,05,05,00,29,10.90
2006,05,05,00,30,10.90
2006,05,05,00,31,10.90
2006,05,05,00,32,10.80
2006,05,05,00,33,10.80
2006,05,05,00,34,10.80
2006,05,05,00,35,10.80
2006,05,05,00,36,10.70
2006,05,05,00,37,10.70
2006,05,05,00,38,10.70
2006,05,05,00,39,10.60
2006,05,05,00,40,10.60
2006,05,05,00,41,10.60
2006,05,05,00,42,10.50
2006,05,05,00,43,10.40
2006,05,05,00,44,10.40
2006,05,05,00,45,10.40
2006,05,05,00,46,10.30
2006,05,05,00,47,10.30
2006,05,05,00,48,10.20
2006,05,05,00,49,10.20
2006,05,05,00,50,10.10
2006,05,05,00,51,10.10
2006,05,05,00,52,10.10
2006,05,05,00,53,10.10
2006,05,05,00,54,10.10
2006,05,05,00,55,10.00
2006,05,05,00,56,9.90
2006,05,05,00,57,9.90
2006,05,05,00,58,9.90
2006,05,05,00,59,9.90
2006,05,05,01,00,9.90
2006,05,05,01,01,9.90
2006,05,05,01,02,9.90
2006,05,05,01,03,9.90
2006,05,05,01,04,9.90
2006,05,05,01,05,9.80
2006,05,05,01,06,9.80
2006,05,05,01,07,9.80
2006,05,05,01,08,9.70
2006,05,05,01,09,9.70
2006,05,05,01,10,9.70
2006,05,05,01,11,9.70
2006,05,05,01,12,9.70
2006,05,05,01,13,9.70
2006,05,05,01,14,9.60
2006,05,05,01,15,9.60
2006,05,05,01,16,9.60
2006,05,05,01,17,9.60
2006,05,05,01,18,9.50
2006,05,05,01,19,9.50
2006,05,05,01,20,9.50
2006,05,05,01,21,9.50
2006,05,05,01,22,9.40
2006,05,05,01,23,9.40
2006,05,05,01,24,9.40
2006,05,05,01,25,9.40
2006,05,05,01,26,9.40
2006,05,05,01,27,9.30
2006,05,05,01,28,9.30
2006,05,05,01,29,9.30
2006,05,05,01,30,9.30
2006,05,05,01,31,9.20
2006,05,05,01,32,9.20
2006,05,05,01,33,9.20
2006,05,05,01,34,9.20
2006,05,05,01,35,9.20
2006,05,05,01,36,9.20
2006,05,05,01,37,9.10
2006,05,05,01,38,9.10
2006,05,05,01,39,9.10
2006,05,05,01,40,9.10
2006,05,05,01,41,9.00
2006,05,05,01,42,9.00
2006,05,05,01,43,9.00
2006,05,05,01,44,9.00
2006,05,05,01,45,9.00
2006,05,05,01,46,9.00
2006,05,05,01,47,9.00
2006,05,05,01,48,9.00
2006,05,05,01,49,9.00
2006,05,05,01,50,9.00
2006,05,05,01,51,9.00
2006,05,05,01,52,9.10
2006,05,05,01,53,9.10
2006,05,05,01,54,9.10
2006,05,05,01,55,9.20
2006,05,05,01,56,9.20
2006,05,05,01,57,9.20
2006,05,05,01,58,9.20
2006,05,05,01,59,9.20
2006,05,05,02,00,9.20
2006,05,05,02,01,9.20
2006,05,05,02,02,9.20
2006,05,05,02,03,9.20
2006,05,05,02,04,9.20
2006,05,05,02,05,9.20
2006,05,05,02,06,9.10
2006,05,05,02,07,9.10
2006,05,05,02,08,9.10
2006,05,05,02,09,9.10
2006,05,05,02,10,9.10
2006,05,05,02,11,9.10
2006,05,05,02,12,9.10
2006,05,05,02,13,9.00
2006,05,05,02,14,9.00
2006,05,05,02,15,9.00
2006,05,05,02,16,9.00
2006,05,05,02,17,9.00
2006,05,05,02,18,9.00
2006,05,05,02,19,8.90
2006,05,05,02,20,8.90
2006,05,05,02,21,8.90
2006,05,05,02,22,8.90
2006,05,05,02,23,8.90
2006,05,05,02,24,8.80
2006,05,05,02,25,8.80
2006,05,05,02,26,8.80
2006,05,05,02,27,8.80
2006,05,05,02,28,8.80
2006,05,05,02,29,8.80
2006,05,05,02,30,8.80
2006,05,05,02,31,8.80
2006,05,05,02,32,8.80
2006,05,05,02,33,8.80
2006,05,05,02,34,8.70
2006,05,05,02,35,8.70
2006,05,05,02,36,8.70
2006,05,05,02,37,8.70
2006,05,05,02,38,8.70
2006,05,05,02,39,8.70
2006,05,05,02,40,8.70
2006,05,05,02,41,8.70
2006,05,05,02,42,8.70
2006,05,05,02,43,8.60
2006,05,05,02,44,8.60
2006,05,05,02,45,8.60
2006,05,05,02,46,8.50
2006,05,05,02,47,8.50
2006,05,05,02,48,8.40
2006,05,05,02,49,8.40
2006,05,05,02,50,8.40
2006,05,05,02,51,8.30
2006,05,05,02,52,8.30
2006,05,05,02,53,8.30
2006,05,05,02,54,8.20
2006,05,05,02,55,8.20
2006,05,05,02,56,8.20
2006,05,05,02,57,8.20
2006,05,05,02,58,8.20
2006,05,05,02,59,8.20
2006,05,05,03,00,8.10
2006,05,05,03,01,8.10
2006,05,05,03,02,8.10
2006,05,05,03,03,8.00
2006,05,05,03,04,8.00
2006,05,05,03,05,8.00
2006,05,05,03,06,8.00
2006,05,05,03,07,7.90
2006,05,05,03,08,7.90
2006,05,05,03,09,7.90
2006,05,05,03,10,7.90
2006,05,05,03,11,7.90
2006,05,05,03,12,7.90
2006,05,05,03,13,7.90
2006,05,05,03,14,7.90
2006,05,05,03,15,7.90
2006,05,05,03,16,7.90
2006,05,05,03,17,7.90
2006,05,05,03,18,7.90
2006,05,05,03,19,7.90
2006,05,05,03,20,7.80
2006,05,05,03,21,7.80
2006,05,05,03,22,7.80
2006,05,05,03,23,7.80
2006,05,05,03,24,7.80
2006,05,05,03,25,7.80
2006,05,05,03,26,7.80
2006,05,05,03,27,7.80
2006,05,05,03,28,7.80
2006,05,05,03,29,7.80
2006,05,05,03,30,7.80
2006,05,05,03,31,7.80
2006,05,05,03,32,7.80
2006,05,05,03,33,7.80
2006,05,05,03,34,7.80
2006,05,05,03,35,7.80
2006,05,05,03,36,7.80
2006,05,05,03,37,7.80
2006,05,05,03,38,7.70
2006,05,05,03,39,7.70
2006,05,05,03,40,7.70
2006,05,05,03,41,7.60
2006,05,05,03,42,7.60
2006,05,05,03,43,7.60
2006,05,05,03,44,7.60
2006,05,05,03,45,7.60
2006,05,05,03,46,7.60
2006,05,05,03,47,7.60
2006,05,05,03,48,7.60
2006,05,05,03,49,7.60
2006,05,05,03,50,7.60
2006,05,05,03,51,7.60
2006,05,05,03,52,7.60
2006,05,05,03,53,7.60
2006,05,05,03,54,7.60
2006,05,05,03,55,7.60
2006,05,05,03,56,7.60
2006,05,05,03,57,7.70
2006,05,05,03,58,7.70
2006,05,05,03,59,7.70
2006,05,05,04,00,7.70
2006,05,05,04,01,7.80
2006,05,05,04,02,7.80
2006,05,05,04,03,7.80
2006,05,05,04,04,7.90
2006,05,05,04,05,7.90
2006,05,05,04,06,8.00
2006,05,05,04,07,8.00
2006,05,05,04,08,8.10
2006,05,05,04,09,8.10
2006,05,05,04,10,8.20
2006,05,05,04,11,8.20
2006,05,05,04,12,8.20
2006,05,05,04,13,8.20
2006,05,05,04,14,8.20
2006,05,05,04,15,8.20
2006,05,05,04,16,8.20
2006,05,05,04,17,8.20
2006,05,05,04,18,8.20
2006,05,05,04,19,8.10
2006,05,05,04,20,8.10
2006,05,05,04,21,8.10
2006,05,05,04,22,8.10
2006,05,05,04,23,8.10
2006,05,05,04,24,8.00
2006,05,05,04,25,8.00
2006,05,05,04,26,8.00
2006,05,05,04,27,8.00
2006,05,05,04,28,8.00
2006,05,05,04,29,8.00
2006,05,05,04,30,8.00
2006,05,05,04,31,8.00
2006,05,05,04,32,8.00
2006,05,05,04,33,7.90
2006,05,05,04,34,7.90
2006,05,05,04,35,7.90
2006,05,05,04,36,7.90
2006,05,05,04,37,7.90
2006,05,05,04,38,7.90
2006,05,05,04,39,7.90
2006,05,05,04,40,7.80
2006,05,05,04,41,7.80
2006,05,05,04,42,7.80
2006,05,05,04,43,7.80
2006,05,05,04,44,7.80
2006,05,05,04,45,7.80
2006,05,05,04,46,7.70
2006,05,05,04,47,7.70
2006,05,05,04,48,7.70
2006,05,05,04,49,7.60
2006,05,05,04,50,7.60
2006,05,05,04,51,7.60
2006,05,05,04,52,7.60
2006,05,05,04,53,7.50
2006,05,05,04,54,7.50
2006,05,05,04,55,7.50
2006,05,05,04,56,7.50
2006,05,05,04,57,7.40
2006,05,05,04,58,7.40
2006,05,05,04,59,7.40
2006,05,05,05,00,7.30
2006,05,05,05,01,7.30
2006,05,05,05,02,7.30
2006,05,05,05,03,7.30
2006,05,05,05,04,7.30
2006,05,05,05,05,7.20
2006,05,05,05,06,7.20
2006,05,05,05,07,7.20
2006,05,05,05,08,7.20
2006,05,05,05,09,7.20
2006,05,05,05,10,7.10
2006,05,05,05,11,7.10
2006,05,05,05,12,7.10
2006,05,05,05,13,7.10
2006,05,05,05,14,7.00
2006,05,05,05,15,7.00
2006,05,05,05,16,7.00
2006,05,05,05,17,7.00
2006,05,05,05,18,7.00
2006,05,05,05,19,7.00
2006,05,05,05,20,7.00
2006,05,05,05,21,6.90
2006,05,05,05,22,6.90
2006,05,05,05,23,6.90
2006,05,05,05,24,6.90
2006,05,05,05,25,6.90
2006,05,05,05,26,6.90
2006,05,05,05,27,6.80
2006,05,05,05,28,6.80
2006,05,05,05,29,6.80
2006,05,05,05,30,6.80
2006,05,05,05,31,6.80
2006,05,05,05,32,6.70
2006,05,05,05,33,6.70
2006,05,05,05,34,6.60
2006,05,05,05,35,6.60
2006,05,05,05,36,6.60
2006,05,05,05,37,6.60
2006,05,05,05,38,6.60
2006,05,05,05,39,6.60
2006,05,05,05,40,6.60
2006,05,05,05,41,6.60
2006,05,05,05,42,6.60
2006,05,05,05,43,6.60
2006,05,05,05,44,6.60
2006,05,05,05,45,6.60
2006,05,05,05,46,6.60
2006,05,05,05,47,6.60
2006,05,05,05,48,6.60
2006,05,05,05,49,6.60
2006,05,05,05,50,6.60
2006,05,05,05,51,6.60
2006,05,05,05,52,6.60
2006,05,05,05,53,6.60
2006,05,05,05,54,6.60
2006,05,05,05,55,6.60
2006,05,05,05,56,6.60
2006,05,05,05,57,6.60
2006,05,05,05,58,6.60
2006,05,05,05,59,6.60
2006,05,05,06,00,6.60
2006,05,05,06,01,6.60
2006,05,05,06,02,6.70
2006,05,05,06,03,6.70
2006,05,05,06,04,6.70
2006,05,05,06,05,6.80
2006,05,05,06,06,6.80
2006,05,05,06,07,6.80
2006,05,05,06,08,6.80
2006,05,05,06,09,6.80
2006,05,05,06,10,6.90
2006,05,05,06,11,6.90
2006,05,05,06,12,6.90
2006,05,05,06,13,7.00
2006,05,05,06,14,7.00
2006,05,05,06,15,7.00
2006,05,05,06,16,7.00
2006,05,05,06,17,7.10
2006,05,05,06,18,7.10
2006,05,05,06,19,7.10
2006,05,05,06,20,7.10
2006,05,05,06,21,7.20
2006,05,05,06,22,7.20
2006,05,05,06,23,7.20
2006,05,05,06,24,7.20
2006,05,05,06,25,7.20
2006,05,05,06,26,7.30
2006,05,05,06,27,7.30
2006,05,05,06,28,7.30
2006,05,05,06,29,7.30
2006,05,05,06,30,7.30
2006,05,05,06,31,7.30
2006,05,05,06,32,7.40
2006,05,05,06,33,7.40
2006,05,05,06,34,7.40
2006,05,05,06,35,7.50
2006,05,05,06,36,7.50
2006,05,05,06,37,7.50
2006,05,05,06,38,7.60
2006,05,05,06,39,7.60
2006,05,05,06,40,7.60
2006,05,05,06,41,7.70
2006,05,05,06,42,7.70
2006,05,05,06,43,7.70
2006,05,05,06,44,7.70
2006,05,05,06,45,7.70
2006,05,05,06,46,7.70
2006,05,05,06,47,7.70
2006,05,05,06,48,7.80
2006,05,05,06,49,7.80
2006,05,05,06,50,7.80
2006,05,05,06,51,7.80
2006,05,05,06,52,7.80
2006,05,05,06,53,7.80
2006,05,05,06,54,7.80
2006,05,05,06,55,7.80
2006,05,05,06,56,7.80
2006,05,05,06,57,7.80
2006,05,05,06,58,7.80
2006,05,05,06,59,7.80
2006,05,05,07,00,7.80
2006,05,05,07,01,7.80
2006,05,05,07,02,7.80
2006,05,05,07,03,7.80
2006,05,05,07,04,7.90
2006,05,05,07,05,7.90
2006,05,05,07,06,7.90
2006,05,05,07,07,7.90
2006,05,05,07,08,7.90
2006,05,05,07,09,8.00
2006,05,05,07,10,8.00
2006,05,05,07,11,8.10
2006,05,05,07,12,8.10
2006,05,05,07,13,8.20
2006,05,05,07,14,8.20
2006,05,05,07,15,8.30
2006,05,05,07,16,8.30
2006,05,05,07,17,8.40
2006,05,05,07,18,8.50
2006,05,05,07,19,8.70
2006,05,05,07,20,8.70
2006,05,05,07,21,8.90
2006,05,05,07,22,9.00
2006,05,05,07,23,9.00
2006,05,05,07,24,9.10
2006,05,05,07,25,9.20
2006,05,05,07,26,9.30
2006,05,05,07,27,9.50
2006,05,05,07,28,9.60
2006,05,05,07,29,9.70
2006,05,05,07,30,9.80
2006,05,05,07,31,9.90
2006,05,05,07,32,10.10
2006,05,05,07,33,10.20
2006,05,05,07,34,10.30
2006,05,05,07,35,10.40
2006,05,05,07,36,10.40
2006,05,05,07,37,10.50
2006,05,05,07,38,10.60
2006,05,05,07,39,10.60
2006,05,05,07,40,10.60
2006,05,05,07,41,10.70
2006,05,05,07,42,10.70
2006,05,05,07,43,10.80
2006,05,05,07,44,10.80
2006,05,05,07,45,10.90
2006,05,05,07,46,10.90
2006,05,05,07,47,11.00
2006,05,05,07,48,11.10
2006,05,05,07,49,11.10
2006,05,05,07,50,11.20
2006,05,05,07,51,11.20
2006,05,05,07,52,11.40
2006,05,05,07,53,11.50
2006,05,05,07,54,11.70
2006,05,05,07,55,11.90
2006,05,05,07,56,12.10
2006,05,05,07,57,12.40
2006,05,05,07,58,12.60
2006,05,05,07,59,12.80
2006,05,05,08,00,12.90
2006,05,05,08,01,13.00
2006,05,05,08,02,13.10
2006,05,05,08,03,13.10
2006,05,05,08,04,13.20
2006,05,05,08,05,13.30
2006,05,05,08,06,13.30
2006,05,05,08,07,13.40
2006,05,05,08,08,13.50
2006,05,05,08,09,13.60
2006,05,05,08,10,13.70
2006,05,05,08,11,13.70
2006,05,05,08,12,13.80
2006,05,05,08,13,13.90
2006,05,05,08,14,14.00
2006,05,05,08,15,14.10
2006,05,05,08,16,14.20
2006,05,05,08,17,14.30
2006,05,05,08,18,14.40
2006,05,05,08,19,14.50
2006,05,05,08,20,14.60
2006,05,05,08,21,14.70
2006,05,05,08,22,14.80
2006,05,05,08,23,14.80
2006,05,05,08,24,14.90
2006,05,05,08,25,15.00
2006,05,05,08,26,15.10
2006,05,05,08,27,15.10
2006,05,05,08,28,15.20
2006,05,05,08,29,15.30
2006,05,05,08,30,15.30
2006,05,05,08,31,15.40
2006,05,05,08,32,15.50
2006,05,05,08,33,15.50
2006,05,05,08,34,15.60
2006,05,05,08,35,15.70
2006,05,05,08,36,15.80
2006,05,05,08,37,15.80
2006,05,05,08,38,15.80
2006,05,05,08,39,15.80
2006,05,05,08,40,15.80
2006,05,05,08,41,15.70
2006,05,05,08,42,15.60
2006,05,05,08,43,15.60
2006,05,05,08,44,15.50
2006,05,05,08,45,15.50
2006,05,05,08,46,15.40
2006,05,05,08,47,15.40
2006,05,05,08,48,15.30
2006,05,05,08,49,15.40
2006,05,05,08,50,15.50
2006,05,05,08,51,15.50
2006,05,05,08,52,15.60
2006,05,05,08,53,15.60
2006,05,05,08,54,15.70
2006,05,05,08,55,15.70
2006,05,05,08,56,15.80
2006,05,05,08,57,15.80
2006,05,05,08,58,15.90
2006,05,05,08,59,16.00
2006,05,05,09,00,16.00
2006,05,05,09,01,15.90
2006,05,05,09,02,15.90
2006,05,05,09,03,15.80
2006,05,05,09,04,15.80
2006,05,05,09,05,15.90
2006,05,05,09,06,15.90
2006,05,05,09,07,15.90
2006,05,05,09,08,15.90
2006,05,05,09,09,15.90
2006,05,05,09,10,15.90
2006,05,05,09,11,15.90
2006,05,05,09,12,15.90
2006,05,05,09,13,15.90
2006,05,05,09,14,15.80
2006,05,05,09,15,15.80
2006,05,05,09,16,15.80
2006,05,05,09,17,15.80
2006,05,05,09,18,15.80
2006,05,05,09,19,15.90
2006,05,05,09,20,16.10
2006,05,05,09,21,16.10
2006,05,05,09,22,16.10
2006,05,05,09,23,16.00
2006,05,05,09,24,15.90
2006,05,05,09,25,15.90
2006,05,05,09,26,15.90
2006,05,05,09,27,15.80
2006,05,05,09,28,15.80
2006,05,05,09,29,15.80
2006,05,05,09,30,15.80
2006,05,05,09,31,15.80
2006,05,05,09,32,15.80
2006,05,05,09,33,15.80
2006,05,05,09,34,15.80
2006,05,05,09,35,15.80
2006,05,05,09,36,15.90
2006,05,05,09,37,16.00
2006,05,05,09,38,16.10
2006,05,05,09,39,16.10
2006,05,05,09,40,16.10
2006,05,05,09,41,16.10
2006,05,05,09,42,16.10
2006,05,05,09,43,16.10
2006,05,05,09,44,16.10
2006,05,05,09,45,16.10
2006,05,05,09,46,16.00
2006,05,05,09,47,15.90
2006,05,05,09,48,15.90
2006,05,05,09,49,15.80
2006,05,05,09,50,15.80
2006,05,05,09,51,15.80
2006,05,05,09,52,15.80
2006,05,05,09,53,15.80
2006,05,05,09,54,15.80
2006,05,05,09,55,15.80
2006,05,05,09,56,15.80
2006,05,05,09,57,15.80
2006,05,05,09,58,15.80
2006,05,05,09,59,15.80
2006,05,05,10,00,15.80
2006,05,05,10,01,15.80
2006,05,05,10,02,15.80
2006,05,05,10,03,15.80
2006,05,05,10,04,15.80
2006,05,05,10,05,15.80
2006,05,05,10,06,15.90
2006,05,05,10,07,16.00
2006,05,05,10,08,16.10
2006,05,05,10,09,16.10
2006,05,05,10,10,16.10
2006,05,05,10,11,16.10
2006,05,05,10,12,16.10
2006,05,05,10,13,16.10
2006,05,05,10,14,16.10
2006,05,05,10,15,16.00
2006,05,05,10,16,15.90
2006,05,05,10,17,15.90
2006,05,05,10,18,16.10
2006,05,05,10,19,16.10
2006,05,05,10,20,16.10
2006,05,05,10,21,16.10
2006,05,05,10,22,16.20
2006,05,05,10,23,16.20
2006,05,05,10,24,16.10
2006,05,05,10,25,16.10
2006,05,05,10,26,16.10
2006,05,05,10,27,16.10
2006,05,05,10,28,16.20
2006,05,05,10,29,16.20
2006,05,05,10,30,16.20
2006,05,05,10,31,16.20
2006,05,05,10,32,16.20
2006,05,05,10,33,16.30
2006,05,05,10,34,16.30
2006,05,05,10,35,16.30
2006,05,05,10,36,16.30
2006,05,05,10,37,16.40
2006,05,05,10,38,16.40
2006,05,05,10,39,16.30
2006,05,05,10,40,16.30
2006,05,05,10,41,16.20
2006,05,05,10,42,16.30
2006,05,05,10,43,16.20
2006,05,05,10,44,16.20
2006,05,05,10,45,16.20
2006,05,05,10,46,16.20
2006,05,05,10,47,16.20
2006,05,05,10,48,16.30
2006,05,05,10,49,16.30
2006,05,05,10,50,16.40
2006,05,05,10,51,16.40
2006,05,05,10,52,16.50
2006,05,05,10,53,16.50
2006,05,05,10,54,16.40
2006,05,05,10,55,16.40
2006,05,05,10,56,16.50
2006,05,05,10,57,16.60
2006,05,05,10,58,16.70
2006,05,05,10,59,16.70
2006,05,05,11,00,16.60
2006,05,05,11,01,16.40
2006,05,05,11,02,16.40
2006,05,05,11,03,16.30
2006,05,05,11,04,16.30
2006,05,05,11,05,16.20
2006,05,05,11,06,16.10
2006,05,05,11,07,16.10
2006,05,05,11,08,16.10
2006,05,05,11,09,16.10
2006,05,05,11,10,16.00
2006,05,05,11,11,15.90
2006,05,05,11,12,15.90
2006,05,05,11,13,15.80
2006,05,05,11,14,15.80
2006,05,05,11,15,15.80
2006,05,05,11,16,15.80
2006,05,05,11,17,15.90
2006,05,05,11,18,15.90
2006,05,05,11,19,15.90
2006,05,05,11,20,15.80
2006,05,05,11,21,15.80
2006,05,05,11,22,15.80
2006,05,05,11,23,15.80
2006,05,05,11,24,15.80
2006,05,05,11,25,15.90
2006,05,05,11,26,15.90
2006,05,05,11,27,16.00
2006,05,05,11,28,16.10
2006,05,05,11,29,16.10
2006,05,05,11,30,16.10
2006,05,05,11,31,16.20
2006,05,05,11,32,16.20
2006,05,05,11,33,16.30
2006,05,05,11,34,16.30
2006,05,05,11,35,16.20
2006,05,05,11,36,16.20
2006,05,05,11,37,16.30
2006,05,05,11,38,16.40
2006,05,05,11,39,16.50
2006,05,05,11,40,16.60
2006,05,05,11,41,16.70
2006,05,05,11,42,16.70
2006,05,05,11,43,16.60
2006,05,05,11,44,16.50
2006,05,05,11,45,16.40
2006,05,05,11,46,16.50
2006,05,05,11,47,16.60
2006,05,05,11,48,16.60
2006,05,05,11,49,16.70
2006,05,05,11,50,16.70
2006,05,05,11,51,16.80
2006,05,05,11,52,16.80
2006,05,05,11,53,16.80
2006,05,05,11,54,16.80
2006,05,05,11,55,16.80
2006,05,05,11,56,16.80
2006,05,05,11,57,16.90
2006,05,05,11,58,17.00
2006,05,05,11,59,17.00
2006,05,05,12,00,17.20
2006,05,05,12,01,17.30
2006,05,05,12,02,17.30
2006,05,05,12,03,17.30
2006,05,05,12,04,17.30
2006,05,05,12,05,17.20
2006,05,05,12,06,17.30
2006,05,05,12,07,17.30
2006,05,05,12,08,17.30
2006,05,05,12,09,17.40
2006,05,05,12,10,17.50
2006,05,05,12,11,17.60
2006,05,05,12,12,17.80
2006,05,05,12,13,17.90
2006,05,05,12,14,18.10
2006,05,05,12,15,18.30
2006,05,05,12,16,18.40
2006,05,05,12,17,18.40
2006,05,05,12,18,18.40
2006,05,05,12,19,18.50
2006,05,05,12,20,18.60
2006,05,05,12,21,18.70
2006,05,05,12,22,18.80
2006,05,05,12,23,18.90
2006,05,05,12,24,18.90
2006,05,05,12,25,19.00
2006,05,05,12,26,19.10
2006,05,05,12,27,19.10
2006,05,05,12,28,19.10
2006,05,05,12,29,19.10
2006,05,05,12,30,19.20
2006,05,05,12,31,19.10
2006,05,05,12,32,18.90
2006,05,05,12,33,18.70
2006,05,05,12,34,18.70
2006,05,05,12,35,18.70
2006,05,05,12,36,18.70
2006,05,05,12,37,18.80
2006,05,05,12,38,18.80
2006,05,05,12,39,18.90
2006,05,05,12,40,18.80
2006,05,05,12,41,18.90
2006,05,05,12,42,18.90
2006,05,05,12,43,18.90
2006,05,05,12,44,18.90
2006,05,05,12,45,18.90
2006,05,05,12,46,18.80
2006,05,05,12,47,18.80
2006,05,05,12,48,18.80
2006,05,05,12,49,18.80
2006,05,05,12,50,18.80
2006,05,05,12,51,18.80
2006,05,05,12,52,18.90
2006,05,05,12,53,19.00
2006,05,05,12,54,19.10
2006,05,05,12,55,19.10
2006,05,05,12,56,19.10
2006,05,05,12,57,19.10
2006,05,05,12,58,19.20
2006,05,05,12,59,19.20
2006,05,05,13,00,19.20
2006,05,05,13,01,19.20
2006,05,05,13,02,19.30
2006,05,05,13,03,19.40
2006,05,05,13,04,19.40
2006,05,05,13,05,19.50
2006,05,05,13,06,19.70
2006,05,05,13,07,19.90
2006,05,05,13,08,20.00
2006,05,05,13,09,20.20
2006,05,05,13,10,20.20
2006,05,05,13,11,20.20
2006,05,05,13,12,20.20
2006,05,05,13,13,20.20
2006,05,05,13,14,20.40
2006,05,05,13,15,20.50
2006,05,05,13,16,20.50
2006,05,05,13,17,20.40
2006,05,05,13,18,20.30
2006,05,05,13,19,20.20
2006,05,05,13,20,20.20
2006,05,05,13,21,20.10
2006,05,05,13,22,19.90
2006,05,05,13,23,19.70
2006,05,05,13,24,19.70
2006,05,05,13,25,19.80
2006,05,05,13,26,19.90
2006,05,05,13,27,20.00
2006,05,05,13,28,20.20
2006,05,05,13,29,20.30
2006,05,05,13,30,20.30
2006,05,05,13,31,20.40
2006,05,05,13,32,20.70
2006,05,05,13,33,20.90
2006,05,05,13,34,21.20
2006,05,05,13,35,21.50
2006,05,05,13,36,21.70
2006,05,05,13,37,22.00
2006,05,05,13,38,22.20
2006,05,05,13,39,22.40
2006,05,05,13,40,22.40
2006,05,05,13,41,22.60
2006,05,05,13,42,22.70
2006,05,05,13,43,22.70
2006,05,05,13,44,22.70
2006,05,05,13,45,22.60
2006,05,05,13,46,22.60
2006,05,05,13,47,22.60
2006,05,05,13,48,22.50
2006,05,05,13,49,22.50
2006,05,05,13,50,22.50
2006,05,05,13,51,22.60
2006,05,05,13,52,22.70
2006,05,05,13,53,22.80
2006,05,05,13,54,22.90
2006,05,05,13,55,22.90
2006,05,05,13,56,22.80
2006,05,05,13,57,22.80
2006,05,05,13,58,22.90
2006,05,05,13,59,22.90
2006,05,05,14,00,22.90
2006,05,05,14,01,22.90
2006,05,05,14,02,23.10
2006,05,05,14,03,23.10
2006,05,05,14,04,23.20
2006,05,05,14,05,23.30
2006,05,05,14,06,23.30
2006,05,05,14,07,23.30
2006,05,05,14,08,23.30
2006,05,05,14,09,23.40
2006,05,05,14,10,23.40
2006,05,05,14,11,23.40
2006,05,05,14,12,23.40
2006,05,05,14,13,23.40
2006,05,05,14,14,23.40
2006,05,05,14,15,23.30
2006,05,05,14,16,23.30
2006,05,05,14,17,23.30
2006,05,05,14,18,23.10
2006,05,05,14,19,23.10
2006,05,05,14,20,23.10
2006,05,05,14,21,23.00
2006,05,05,14,22,22.90
2006,05,05,14,23,22.90
2006,05,05,14,24,22.90
2006,05,05,14,25,22.80
2006,05,05,14,26,22.80
2006,05,05,14,27,22.80
2006,05,05,14,28,22.80
2006,05,05,14,29,22.90
2006,05,05,14,30,22.80
2006,05,05,14,31,22.80
2006,05,05,14,32,22.80
2006,05,05,14,33,22.90
2006,05,05,14,34,22.90
2006,05,05,14,35,22.90
2006,05,05,14,36,22.90
2006,05,05,14,37,22.90
2006,05,05,14,38,22.90
2006,05,05,14,39,22.90
2006,05,05,14,40,22.90
2006,05,05,14,41,22.90
2006,05,05,14,42,22.90
2006,05,05,14,43,22.90
2006,05,05,14,44,22.90
2006,05,05,14,45,23.00
2006,05,05,14,46,23.00
2006,05,05,14,47,22.90
2006,05,05,14,48,22.90
2006,05,05,14,49,22.90
2006,05,05,14,50,22.90
2006,05,05,14,51,22.90
2006,05,05,14,52,22.90
2006,05,05,14,53,22.80
2006,05,05,14,54,22.70
2006,05,05,14,55,22.60
2006,05,05,14,56,22.60
2006,05,05,14,57,22.50
2006,05,05,14,58,22.40
2006,05,05,14,59,22.40
2006,05,05,15,00,22.30
2006,05,05,15,01,22.30
2006,05,05,15,02,22.30
2006,05,05,15,03,22.20
2006,05,05,15,04,22.30
2006,05,05,15,05,22.30
2006,05,05,15,06,22.40
2006,05,05,15,07,22.40
2006,05,05,15,08,22.40
2006,05,05,15,09,22.40
2006,05,05,15,10,22.40
2006,05,05,15,11,22.40
2006,05,05,15,12,22.40
2006,05,05,15,13,22.40
2006,05,05,15,14,22.30
2006,05,05,15,15,22.30
2006,05,05,15,16,22.30
2006,05,05,15,17,22.40
2006,05,05,15,18,22.50
2006,05,05,15,19,22.50
2006,05,05,15,20,22.50
2006,05,05,15,21,22.60
2006,05,05,15,22,22.60
2006,05,05,15,23,22.60
2006,05,05,15,24,22.60
2006,05,05,15,25,22.60
2006,05,05,15,26,22.60
2006,05,05,15,27,22.50
2006,05,05,15,28,22.40
2006,05,05,15,29,22.40
2006,05,05,15,30,22.40
2006,05,05,15,31,22.40
2006,05,05,15,32,22.40
2006,05,05,15,33,22.30
2006,05,05,15,34,22.20
2006,05,05,15,35,22.10
2006,05,05,15,36,22.00
2006,05,05,15,37,22.00
2006,05,05,15,38,22.00
2006,05,05,15,39,22.00
2006,05,05,15,40,21.90
2006,05,05,15,41,21.90
2006,05,05,15,42,21.90
2006,05,05,15,43,21.90
2006,05,05,15,44,21.90
2006,05,05,15,45,21.90
2006,05,05,15,46,21.90
2006,05,05,15,47,21.90
2006,05,05,15,48,21.90
2006,05,05,15,49,21.80
2006,05,05,15,50,21.80
2006,05,05,15,51,21.80
2006,05,05,15,52,21.90
2006,05,05,15,53,22.00
2006,05,05,15,54,22.10
2006,05,05,15,55,22.20
2006,05,05,15,56,22.30
2006,05,05,15,57,22.30
2006,05,05,15,58,22.30
2006,05,05,15,59,22.30
2006,05,05,16,00,22.20
2006,05,05,16,01,22.20
2006,05,05,16,02,22.20
2006,05,05,16,03,22.20
2006,05,05,16,04,22.20
2006,05,05,16,05,22.20
2006,05,05,16,06,22.20
2006,05,05,16,07,22.20
2006,05,05,16,08,22.20
2006,05,05,16,09,22.20
2006,05,05,16,10,22.20
2006,05,05,16,11,22.30
2006,05,05,16,12,22.30
2006,05,05,16,13,22.40
2006,05,05,16,14,22.50
2006,05,05,16,15,22.50
2006,05,05,16,16,22.40
2006,05,05,16,17,22.40
2006,05,05,16,18,22.30
2006,05,05,16,19,22.30
2006,05,05,16,20,22.30
2006,05,05,16,21,22.20
2006,05,05,16,22,22.10
2006,05,05,16,23,21.90
2006,05,05,16,24,21.60
2006,05,05,16,25,21.50
2006,05,05,16,26,21.30
2006,05,05,16,27,21.30
2006,05,05,16,28,21.20
2006,05,05,16,29,21.20
2006,05,05,16,30,21.20
2006,05,05,16,31,21.10
2006,05,05,16,32,21.00
2006,05,05,16,33,20.90
2006,05,05,16,34,20.80
2006,05,05,16,35,20.80
2006,05,05,16,36,20.90
2006,05,05,16,37,20.90
2006,05,05,16,38,20.90
2006,05,05,16,39,20.80
2006,05,05,16,40,20.80
2006,05,05,16,41,20.80
2006,05,05,16,42,20.80
2006,05,05,16,43,20.80
2006,05,05,16,44,20.70
2006,05,05,16,45,20.70
2006,05,05,16,46,20.60
2006,05,05,16,47,20.60
2006,05,05,16,48,20.60
2006,05,05,16,49,20.60
2006,05,05,16,50,20.70
2006,05,05,16,51,20.70
2006,05,05,16,52,20.70
2006,05,05,16,53,20.70
2006,05,05,16,54,20.80
2006,05,05,16,55,20.80
2006,05,05,16,56,20.80
2006,05,05,16,57,20.80
2006,05,05,16,58,20.90
2006,05,05,16,59,21.00
2006,05,05,17,00,21.00
2006,05,05,17,01,21.10
2006,05,05,17,02,21.10
2006,05,05,17,03,21.20
2006,05,05,17,04,21.10
2006,05,05,17,05,21.10
2006,05,05,17,06,21.00
2006,05,05,17,07,21.00
2006,05,05,17,08,20.90
2006,05,05,17,09,21.00
2006,05,05,17,10,21.00
2006,05,05,17,11,21.00
2006,05,05,17,12,21.00
2006,05,05,17,13,21.00
2006,05,05,17,14,21.00
2006,05,05,17,15,21.00
2006,05,05,17,16,20.90
2006,05,05,17,17,20.90
2006,05,05,17,18,20.90
2006,05,05,17,19,20.80
2006,05,05,17,20,20.70
2006,05,05,17,21,20.60
2006,05,05,17,22,20.50
2006,05,05,17,23,20.40
2006,05,05,17,24,20.30
2006,05,05,17,25,20.20
2006,05,05,17,26,20.20
2006,05,05,17,27,20.10
2006,05,05,17,28,20.00
2006,05,05,17,29,19.90
2006,05,05,17,30,19.90
2006,05,05,17,31,19.90
2006,05,05,17,32,19.90
2006,05,05,17,33,19.80
2006,05,05,17,34,19.70
2006,05,05,17,35,19.70
2006,05,05,17,36,19.70